Location: Montreal
(45.5000°N, 73.5833°W)
Time: 22:40:04
(UTC-05:00)

Vanguard 1 - Pass Details

Date: 18 October 2017
Orbit: 650 x 3833 km, 34.2° (Epoch: 10 December)

Event Time Altitude Azimuth Distance (km) Brightness Sun altitude
Rises 22:32:38 0° 175° (S) 4,838 - -45.3°
Reaches altitude 10° 22:37:54 10° 151° (SSE) 4,478 - -46.0°
Maximum altitude 22:43:35 14° 124° (SE) 4,763 - -46.7°
Drops below altitude 10° 22:50:35 10° 99° (E) 5,770 - -47.6°
Exits shadow 22:58:24 - 82° (E) 7,227 14.3 -48.5°
Sets 22:59:33 0° 80° (E) 7,446 14.4 -48.6°
